White Plains, CT

6:40 PM EDT on August 18, 2017 (GMT -0400)
Westchester County

Weather History for KHPN - October, 2012

Change the Weather History Date:

Friday, October 19, 2012

  Actual Average Record
Temperature  
Mean Temperature 62 °F -  
Max Temperature 64 °F 58 °F 82 °F (2016)
Min Temperature 59 °F 42 °F 24 °F (1976)
Degree Days  
Heating Degree Days 4    
Growing Degree Days 12 (Base 50)    
Moisture  
Dew Point 61 °F    
Average Humidity 94    
Maximum Humidity 97    
Minimum Humidity 78    
Precipitation  
Precipitation 1.28 in - - ()
Sea Level Pressure  
Sea Level Pressure 29.79 in    
Wind  
Wind Speed 9 mph (SE)    
Max Wind Speed 16 mph    
Max Gust Speed 25 mph    
Visibility 3 miles    
Events Fog , Rain    
Averages and records for this station are not official NWS values.
T = Trace of Precipitation, MM = Missing Value Source: NWS Daily Summary

Daily Weather History Graph

Daily Weather History Graph

Search for Another Location

Airport or City:

Trip Planner

Search our weather history database for the weather conditions in past years. The results will help you decide how hot, cold, wet, or windy it might be!

Date:

Astronomy

Oct. 19, 2012 Rise Set
Actual Time 7:11 AM EDT 6:07 PM EDT
Civil Twilight 6:43 AM EDT 6:35 PM EDT
Nautical Twilight 6:11 AM EDT 7:07 PM EDT
Astronomical Twilight 5:39 AM EDT 7:39 PM EDT
Moon 11:53 AM EDT (10/19) 9:41 PM EDT (10/19)
Length of Visible Light 11h 51m
Length of Day
10h 56m
Waxing Crescent, 23% of the Moon is Illuminated
Oct 19
Waxing Crescent
Oct 21
First Quarter
Oct 29
Full
Nov 6
Last Quarter
Nov 13
New

Hourly Weather History & Observations

Time (EDT) Temp. Dew Point Humidity Pressure Visibility Wind Dir Wind Speed Gust Speed Precip Events Conditions
12:56 AM 60.1 °F 53.1 °F 78% 29.95 in 10.0 mi ESE 8.1 mph - N/A   Overcast
1:56 AM 59.0 °F 55.9 °F 90% 29.93 in 5.0 mi East 6.9 mph - 0.02 in Rain Light Rain
2:56 AM 61.0 °F 59.0 °F 93% 29.91 in 10.0 mi SE 9.2 mph - 0.04 in   Overcast
3:56 AM 61.0 °F 59.0 °F 93% 29.89 in 3.0 mi SE 9.2 mph 20.7 mph 0.06 in Rain Rain
4:56 AM 61.0 °F 60.1 °F 97% 29.88 in 2.5 mi SE 16.1 mph 21.9 mph 0.03 in Rain Light Rain
5:56 AM 60.1 °F 59.0 °F 96% 29.89 in 10.0 mi ESE 9.2 mph - 0.00 in   Overcast
6:18 AM 60.8 °F 59.0 °F 94% 29.88 in 2.5 mi ESE 6.9 mph - 0.05 in Rain Rain
6:56 AM 60.1 °F 59.0 °F 96% 29.87 in 3.0 mi ESE 10.4 mph - 0.17 in Rain Light Rain
7:20 AM 60.8 °F 59.0 °F 94% 29.87 in 1.0 mi ESE 11.5 mph - 0.05 in Rain Light Rain
7:56 AM 61.0 °F 60.1 °F 97% 29.86 in 1.5 mi ESE 13.8 mph - 0.06 in Rain Light Rain
8:56 AM 63.0 °F 61.0 °F 93% 29.85 in 5.0 mi ESE 12.7 mph - 0.03 in Rain Light Rain
9:03 AM 62.6 °F 60.8 °F 94% 29.85 in 1.5 mi SE 10.4 mph 19.6 mph 0.04 in Rain Heavy Rain
9:56 AM 64.0 °F 62.1 °F 93% 29.83 in 1.5 mi SSE 12.7 mph 23.0 mph 0.25 in Rain Light Rain
10:56 AM 64.0 °F 63.0 °F 96% 29.81 in 2.0 mi SE 12.7 mph - 0.03 in Rain Light Rain
11:56 AM 64.0 °F 62.1 °F 93% 29.79 in 1.5 mi SSE 13.8 mph 25.3 mph 0.06 in Rain Light Rain
12:34 PM 64.4 °F 62.6 °F 94% 29.79 in 3.0 mi SSE 12.7 mph 25.3 mph 0.03 in Rain Light Rain
12:49 PM 64.4 °F 62.6 °F 94% 29.79 in 1.5 mi SSE 13.8 mph 23.0 mph 0.09 in Rain Light Rain
12:56 PM 64.0 °F 63.0 °F 96% 29.78 in 1.0 mi SSE 12.7 mph 23.0 mph 0.17 in Rain Heavy Rain
1:56 PM 64.9 °F 63.0 °F 93% 29.77 in 1.5 mi SSE 13.8 mph - 0.28 in Rain Rain
2:56 PM 64.4 °F 62.6 °F 94% 29.75 in 5.0 mi SE 9.2 mph - N/A   Overcast
3:08 PM 64.4 °F 62.6 °F 94% 29.75 in 1.0 mi SSE 5.8 mph - 0.04 in Rain Rain
3:56 PM 64.9 °F 63.0 °F 93% 29.73 in 2.5 mi SSE 9.2 mph - 0.08 in Rain Rain
4:04 PM 64.4 °F 62.6 °F 94% 29.73 in 2.5 mi SSE 9.2 mph - 0.00 in Rain Rain
4:56 PM 64.4 °F 62.6 °F 94% 29.71 in 2.5 mi SSE 6.9 mph - N/A Rain Rain
5:56 PM 64.9 °F 63.0 °F 93% 29.69 in 1.5 mi SSE 4.6 mph - N/A   Overcast
6:39 PM 64.4 °F 62.6 °F 94% 29.69 in 1.5 mi SSE 4.6 mph - N/A   Mist
6:56 PM 64.9 °F 63.0 °F 93% 29.69 in 1.5 mi SSE 4.6 mph - N/A   Mist
7:56 PM 64.9 °F 63.0 °F 93% 29.68 in 1.0 mi SE 8.1 mph - N/A   Overcast
8:34 PM 64.4 °F 62.6 °F 94% 29.68 in 0.2 mi SE 6.9 mph - N/A Fog Fog
8:56 PM 64.0 °F 63.0 °F 96% 29.68 in 0.2 mi SE 5.8 mph - N/A Fog Fog
9:33 PM 64.4 °F 62.6 °F 94% 29.69 in 0.8 mi SSE 9.2 mph - N/A   Mist
9:56 PM 64.4 °F 62.6 °F 94% 29.69 in 1.2 mi South 5.8 mph 17.3 mph N/A   Mist
10:56 PM 64.0 °F 63.0 °F 96% 29.69 in 1.5 mi South 5.8 mph - N/A   Mist
11:56 PM 64.0 °F 63.0 °F 96% 29.70 in 1.5 mi SSE 6.9 mph - N/A   Mist